www.pogodaiklimat.ru

Погода и климат >> Архив погоды >> Россия >> Амурская область >> Благовещенск


АРХИВ ПОГОДЫ в Благовещенске

Время (UTC), дата Ветер
(напр.,м/с)
 
Видим.   Явления Облачность Т
(С)
Тd
(С)
f
(%)
Тe
(С)
Тes
(С)
Комфортность P
(гПа)
Po
(гПа)
Тmin
(С)
Tmax
(С)
R
(мм)
R24
(мм)
S
(см)
15 11.08 СЗ 1 н/о 3/0
[Ac trans]
+15.9 +15.9 100 +17 +17 по сезону 1007.7 987.9
18 11.08 штиль 0 н/о 4/0
[Ac trans]
+15.2 +14.9 98 +15 +15 по сезону 1007.2 987.4
21 11.08 З 2 10 км 6/6 1000 м
[Sc]
+14.5 +14.5 100 +14 +14 прохладно 1007.6 987.7
00 12.08 СЗ 2 20 км 1/0
[Ac trans]
+19.9 +16.5 81 +23 +30 комфорт 1008.3 988.8 +14.0
03 12.08 С 2 10 км 1/1 600 м
[Cu med, cong]
+24.7 +16.8 61 +28 +41 душно 1007.3 988.1
06 12.08 ЮЗ 2 10 км 3/3 600 м
[Cu med, cong]
+26.2 +16.1 54 +30 +37 душно 1006.7 987.6
09 12.08 З 1 10 км 1/1 600 м
[Cu hum]
+25.9 +16.5 56 +29 +31 душно 1007.0 987.9
12 12.08 З 2 н/о ясно +19.4 +17.4 88 +22 +22 комфорт 1008.0 988.5 +27.2
15 12.08 З 2 н/о ясно +17.0 +16.1 94 +17 +17 по сезону 1008.4 988.7
18 12.08 штиль 0 н/о 6/0
[Ci fib]
+16.0 +15.6 97 +16 +16 по сезону 1008.8 989.0
21 12.08 СЗ 1 10 км 10/0
[Ac cast Ci fib]
+14.9 +14.8 99 +15 +15 прохладно 1008.9 989.0
00 13.08 штиль 0 20 км 10/0
[Ci fib]
+21.8 +17.4 76 +26 +34 душно 1008.6 989.2 +14.1
03 13.08 ЮВ 3 20 км 10/3 1000 м
[Cu hum Ci fib]
+24.5 +17.9 67 +29 +35 душно 1007.3 988.1
06 13.08 Ю 4 50 км 10/4 600 м
[Cu hum Ci fib]
+26.7 +16.8 55 +30 +34 душно 1005.8 986.8
09 13.08 ЮЗ 1 20 км 10/6 600 м
[Cb cap Ac As Ci fib]
+25.2 +18.1 65 +30 +30 душно 1004.8 985.7
12 13.08 В 1 н/о 5/1 1000 м
[Sc diur, vesp Ac trans]
+21.7 +18.5 82 +26 +26 душно 1004.8 985.5 +27.1
15 13.08 СЗ 1 н/о 9/9 1000 м
[Sc]
+18.8 +18.6 99 +21 +21 комфорт 1004.2 984.7
18 13.08 З 1 н/о 4/4 1000 м
[Sc]
+17.9 +17.8 99 +19 +19 тепло 1003.8 984.3
21 13.08 С 1 20 км 10/3 600 м
[Sc Ac trans Ci fib]
+17.4 +17.1 98 +18 +19 по сезону 1003.0 983.5
00 14.08 В 1 20 км 10/0
[Ac trans Ci]
+22.4 +19.8 85 +28 +34 душно 1002.5 983.3 +16.7
03 14.08 Ю 2 50 км 10/3 1000 м
[Cu med, cong Cs]
+25.2 +20.2 74 +31 +39 очень
душно
1001.5 982.5
06 14.08 Ю 2 50 км 9/6 1000 м
[Cu med, cong Ci]
+26.9 +18.7 61 +32 +35 очень
душно
1000.4 981.5
09 14.08 ЮВ 2 50 км 6/3 1000 м
[Cu med, cong Ci fib]
+25.9 +20.2 71 +32 +33 очень
душно
1000.0 981.1
12 14.08 ЮВ 1 н/о зарница 10/4 600 м
[Cb cap Ci fib]
+22.0 +20.2 90 +28 +28 душно 1001.3 982.1 +27.2
15 14.08 Ю 1 н/о 10/10 600 м
[Cb cap]
+20.5 +19.9 96 +26 +26 душно 1001.8 982.5
18 14.08 ЮВ 1 н/о 10/10 600 м
[Cb cap]
+19.2 +19.0 99 +22 +22 комфорт 1002.4 983.0
21 14.08 В 1 4000 м дымка 10/10 300 м
[St]
+18.5 +18.5 100 +21 +21 комфорт 1002.8 983.3
00 15.08 СВ 2 4000 м дымка 10/10 300 м
[St]
+19.5 +19.3 99 +23 +23 комфорт 1002.7 983.3 +18.4 0.0
03 15.08 СВ 2 50 км 10/10 600 м
[Cb cap]
+21.4 +19.5 89 +26 +26 душно 1003.2 983.9
06 15.08 Ю 1 50 км 10/10 600 м
[Cb cap]
+22.7 +19.5 82 +29 +29 очень
душно
1002.6 983.4
09 15.08 В 2 50 км 10/8 600 м
[Cb cap Ci fib]
+23.7 +19.7 78 +29 +29 душно 1002.0 982.9
12 15.08 В 1 н/о {ливн. осадки} 9/9 600 м
[Cb cap]
+20.8 +19.1 90 +26 +26 душно 1002.9 983.6 +24.7 0.0
15 15.08 С 2 н/о 8/8 1000 м
[Sc]
+18.8 +18.4 98 +21 +21 комфорт 1002.7 983.2
18 15.08 СЗ 1 н/о 6/0
[Ac trans]
+18.1 +17.9 99 +19 +19 тепло 1001.9 982.4
21 15.08 СЗ 2 20 км 9/0
[Ac As Ci fib]
+17.2 +17.0 99 +17 +18 по сезону 1001.7 982.1
00 16.08 СВ 4 20 км 10/10 600 м
[Cb cap]
+18.9 +18.5 98 +20 +20 тепло 1001.5 982.1 +16.8
03 16.08 СВ 4 20 км слаб. ливневой дождь 10/10 600 м
[Cb cap]
+19.0 +17.6 92 +21 +21 комфорт 1000.7 981.3
06 16.08 СВ 3 4000 м ливневой дождь 10/10 600 м
[Cb cap]
+18.5 +18.3 99 +20 +20 прохладно 999.7 980.3
09 16.08 В 2 2000 м ливневой дождь 10/10 300 м
[Cb cap]
+17.7 +17.5 99 +18 +18 прохладно 999.0 979.6
12 16.08 СВ 3
{10}
н/о слаб. ливневой дождь 10/10 600 м
[Cb cap]
+16.1 +15.9 99 +16 +16 прохладно 998.8 979.2 +19.8 16
15 16.08 СВ 4 н/о слаб. ливневой дождь 10/10 600 м
[Cb cap]
+15.7 +15.6 99 +15 +15 прохладно 997.3 977.8
18 16.08 СВ 3 н/о слаб. ливневой дождь 10/10 600 м
[Cb cap]
+15.3 +15.0 98 +15 +15 по сезону 996.4 976.8
21 16.08 СВ 2 2000 м морось {ливн. осадки} 10/10 300 м
[St]
+14.9 +14.8 99 +15 +15 прохладно 996.1 976.5
00 17.08 СВ 3 4000 м слаб. морось 10/10 600 м
[St]
+15.5 +15.2 98 +15 +15 прохладно 996.0 976.4 +14.8 6
03 17.08 СВ 2 10 км слаб. морось 10/10 600 м
[St]
+17.4 +16.8 96 +18 +18 прохладно 995.9 976.5
06 17.08 СВ 1 4000 м сильн. морось 10/10 600 м
[St]
+16.9 +16.7 99 +18 +18 холодно 996.1 976.6
09 17.08 В 1 4000 м слаб. ливневой дождь {морось} 10/10 600 м
[Cb cap]
+16.1 +15.8 98 +17 +17 холодно 996.6 977.1
12 17.08 В 2 н/о слаб. морось 10/10 300 м
[St]
+15.5 +15.3 99 +15 +15 прохладно 997.9 978.3 +18.2 11
15 17.08 В 1 н/о сильн. морось {ливн. осадки} 10/10 300 м
[St]
+15.0 +14.8 99 +15 +15 прохладно 998.3 978.7
18 17.08 В 2 н/о сильн. морось {ливн. осадки} 10/10 300 м
[St]
+14.1 +14.1 100 +13 +13 прохладно 998.8 979.1
21 17.08 СВ 3 2000 м сильн. морось 10/10 300 м
[St]
+13.7 +13.7 100 +12 +12 холодно 999.8 980.0
00 18.08 СВ 3 2000 м слаб. морось 10/10 300 м
[St]
+14.0 +13.7 98 +13 +13 холодно 1000.9 981.1 +13.5 8
03 18.08 СВ 4 20 км {морось} 10/10 600 м
[Cb cap]
+15.4 +14.2 93 +14 +14 холодно 1002.2 982.5
06 18.08 С 3 10 км слаб. ливневой дождь {морось} 10/10 600 м
[Cb cap]
+15.6 +15.0 96 +15 +15 очень
холодно
1003.2 983.5
09 18.08 С 2 10 км слаб. ливневой дождь {морось} 10/10 600 м
[Cb cap]
+15.1 +14.5 96 +15 +15 холодно 1004.7 984.9
12 18.08 С 2 н/о {ливн. осадки, морось} 10/4 600 м
[Cb cap Ac und]
+13.4 +12.9 97 +13 +13 холодно 1006.6 986.7 +16.3 0.9

 

Местоположение метеостанции Благовещенск (Амурская область, Россия): широта 50.28 долгота 127.40 высота над уровнем моря 169 м.

В архиве по умолчанию представлена погода в Благовещенске за последнюю неделю. Архивные данные за месяц целиком и за предыдущие месяцы, начиная с января 2011 года, Вы можете получить, выбрав интересующий диапазон дат из раскрывающегося списка и нажав кнопку "Ввод!".


*Определитесь, кто Вы:
робот инопланетянин человек

Внимание! Время в таблицах - всемирное. Для получения местного времени необходимо прибавить поправку, которая равна 9 ч.

Смотрите также архив погоды в соседних городах и на ближайших метеорологических станциях:

Погода в Айгуне (Хэйлунцзян, Китай) (5 км)
Погода в Сергеевке (Амурская область, Россия) (56 км)
Погода в Константиновке (Амурская область, Россия) (82 км)
Погода в Суньу (Хэйлунцзян, Китай) (95 км)
Погода в Белогорске (Амурская область, Россия) (100 км)
Погода в Поярково (Амурская область, Россия) (113 км)
Погода в Екатеринославке (Амурская область, Россия) (114 км)
Погода в Свободном (Амурская область, Россия) (139 км)
Погода в Завитае (Амурская область, Россия) (143 км)
Погода в Братолюбовке (Амурская область, Россия) (145 км)

Пояснения к столбцам:

Ветер - указаны скорость ветра в м/с - средняя за 10 мин, порывы в срок и между сроками (в фигурных скобках) и направление, откуда дует ветер: С - северный, СВ - северо-восточный, В - восточный, ЮВ - юго-восточный, Ю - южный, ЮЗ - юго-западный, З - западный, СЗ - северо-западный.
Видимость - горизонтальная дальность видимости в метрах или километрах. При видимости от 1 до 10 км при отсутствии осадков обычно наблюдается дымка, при ухудшении видимости до 1 км и менее - туман. В сухую погоду видимость может ухудшаться дымом, пылью или мглою.
Явления - указаны атмосферные явления, наблюдавшиеся в срок или в последний час перед сроком; фигурными скобками обозначены явления, наблюдавшиеся между сроками (за 1-3 часа до срока); квадратными скобками обозначены град или гололедные отложения с указанием их диаметра в мм.
Облачность - указаны через наклонную черту общая и нижняя облачность в баллах и высота нижней границы облаков в метрах; квадратными скобками обозначены формы облаков: Ci - перистые, Cs - перисто-слоистые, Cc - перисто-кучевые, Ac - высококучевые, As - высокослоистые, Sc - слоисто-кучевые, Ns - слоисто-дождевые, Cu - кучевые, Cb - кучево-дождевые. Подробнее классификацию облаков см. в Атласе облаков (PDF).
T - Температура воздуха - температура, измеренная на высоте 2 м над землей.
Td - Температура точки росы - температура, при понижении до которой содержащийся в воздухе водяной пар достигнет насыщения.
f - Относительная влажность воздуха - влажноcть воздуха, измеренная на высоте 2 м над землей.
Te - Эффективная температура - температура, которую ощущает одетый по сезону человек в тени. Характеристика душности погоды. При расчете учитывается влияние влажности воздуха и скорости ветра на теплоощущения человека.
Tes - Эффективная температура на солнце - температура, которую ощущает человек, с поправкой на солнечный нагрев. Характеристика знойности погоды. Зависит от высоты солнца над горизонтом, облачности и скорости ветра. Ночью, в пасмурную погоду, а также при ветре 12 м/с и более поправка равна нулю.
P - Атмосферное давление - приведенное к уровню моря атмосферное давление.
Po - Атмосферное давление - измеренное на уровне метеостанции атмосферное давление.
Tmin - Минимальная температура - минимум температуры воздуха на высоте 2 м над землей.
Tmax - Максимальная температура - максимум температуры воздуха на высоте 2 м над землей.
R - Количество осадков - Количество выпавших осадков за период времени, мм. При наведении курсора мыши на число - период времени, за который выпало указанное количество осадков.
R24 - Количество осадков - Количество выпавших осадков за 24 часа, мм.
S - Снежный покров - Высота снежного покрова, см. При наведении курсора мыши на число - состояние снежного покрова и степень покрытия местности в баллах.